Regional Weather Roundup
Issued by NWS

Home | Current Version | Previous Version | Graphics & Text | Print | Product List | Glossary On
Versions: 1 2 3 4 5 6 7 8 9 10 11 12 13 14 15 16 17 18 19 20 21 22 23 24 25 26 27 28 29 30 31 32 33 34 35 36 37 38 39 40 41 42 43 44 45 46 47 48 49 50
000
ASUS45 KTFX 041910
RWRMT
MONTANA REGIONAL WEATHER ROUNDUP
NATIONAL WEATHER SERVICE GREAT FALLS MT
100 PM MDT FRI SEP 04 2015

NOTE: "FAIR" INDICATES FEW OR NO CLOUDS BELOW 12000 FEET WITH NO
SIGNIFICANT WEATHER AND/OR OBSTRUCTIONS TO VISIBILITY.

MTZ001>007-043-042000-
WEST OF THE DIVIDE

CITY           SKY/WX    TMP DP  RH WIND       PRES   REMARKS
KALISPELL      PTCLDY    62  44  51 N9        29.96F
MISSOULA       CLOUDY    54  44  69 CALM      29.96F
BUTTE          CLOUDY    47  42  83 CALM      30.01R
MULLAN PASS    CLOUDY    51  37  58 VRB5      29.98S
DEER LODGE       N/A     46  45  93 SE3       30.04R
EUREKA           N/A     52  43  71 N7        30.03F
HAMILTON         N/A     52  43  71 N6        29.95F
LIBBY            N/A     59  39  47 NW7       29.98F
$$

MTZ008-052>055-042000-
SOUTHWEST MONTANA

CITY           SKY/WX    TMP DP  RH WIND       PRES   REMARKS
BOZEMAN        CLOUDY    57  46  66 SW3       29.95F
DILLON         CLOUDY    51  43  74 CALM      29.97S
W YELLOWSTONE  SUNNY     66  37  34 SW18G26   29.95F
$$

MTZ009-010-012-014-046-048-049-054-042000-
EAST SLOPES AND CENTRAL MONTANA

CITY           SKY/WX    TMP DP  RH WIND       PRES   REMARKS
CUT BANK       LGT RAIN  47  46  97 N10       30.02F FOG
GREAT FALLS    LGT RAIN  51  49  92 E5        29.99S
MALMSTROM AFB  LGT RAIN  50  50 100 NE9       29.99S
HELENA         CLOUDY    53  47  79 CALM      29.98F
CONRAD           N/A     49  49 100 NE8       30.04S
$$

MTZ011-013-016-021-045-047-050-051-042000-
NORTH CENTRAL MONTANA

CITY           SKY/WX    TMP DP  RH WIND       PRES   REMARKS
HAVRE          HVY RAIN  52  50  93 NW6       30.03R FOG
LEWISTOWN      CLOUDY    56  39  53 W3        29.99S
N BAR RANCH    CLOUDY    59  45  58 NW6G12    29.98F
CHINOOK          N/A     54  52  94 CALM      30.00S
FORT BENTON      N/A     52  46  82 NE9       30.01F
$$

MTZ017>020-022>027-061-062-042000-
NORTHEAST MONTANA

CITY           SKY/WX    TMP DP  RH WIND       PRES   REMARKS
GLASGOW        MOSUNNY   73  46  38 NE17G24   29.88F
JORDAN           N/A     68  49  50 NE13      29.89F
SIDNEY         CLOUDY    68  52  56 N14         N/A
WOLF POINT     SUNNY     76  52  43 NE15G22   29.87F
PLENTYWOOD       N/A     63  50  63 NE23      29.91R
POPLAR           N/A     72  54  53 NE14G21   29.88S
$$

MTZ028>42-056>058-042000-
SOUTHCENTRAL AND SOUTHEAST MONTANA

CITY           SKY/WX    TMP DP  RH WIND       PRES   REMARKS
BAKER          CLOUDY    70  57  63 N6        29.89R
BILLINGS       MOSUNNY   64  45  49 N8        29.92F
LIVINGSTON     CLOUDY    57  45  64 E12       29.95F
MILES CITY     CLOUDY    71  50  47 W7        29.87S
EKALAKA          N/A     71  54  55 N5        29.89S
FORSYTH          N/A     63  45  51 SW9       29.89F
LAUREL           N/A     64  46  52 NE5       29.92F
$$

REGIONAL REPORTS...DAKOTAS

CITY           SKY/WX    TMP DP  RH WIND       PRES   REMARKS
WILLISTON      CLOUDY    67  54  63 N15       29.89S
MINOT          CLOUDY    75  64  68 NE9       29.77F
DICKINSON      CLOUDY    68  63  84 N8        29.83S HAZE
CROSBY         CLOUDY    66  54  63 N12G18    29.90S
BISMARCK       CLOUDY    80  71  74 SW7       29.80F
GRAND FORKS    CLOUDY    81  72  74 S16       29.76S
FARGO          LGT RAIN  78  69  73 SW15      29.80F
BUFFALO SD       N/A     82  59  45 VRB3      29.77F
RAPID CITY     SUNNY     86  53  32 NW3       29.82F
$$

REGIONAL REPORTS...WYOMING/IDAHO/WASHINGTON

CITY           SKY/WX    TMP DP  RH WIND       PRES   REMARKS
GILLETTE       SUNNY     77  50  38 E6        29.90F
SHERIDAN       SUNNY     74  46  36 VRB3      29.89F
BUFFALO WY     SUNNY     76  45  33 SE13G20   29.93F
CODY           SUNNY     64  45  48 N6        29.91F
YELLOWSTONE LA   N/A     68  34  28 VRB5      30.04S
IDAHO FALLS    PTSUNNY   68  39  34 VRB5      29.87F
SALMON         CLOUDY    48  45  87 CALM      29.97S
BOISE          MOSUNNY   65  43  44 CALM      29.81F
SPOKANE        MOSUNNY   64  35  34 N12       29.93F
$$

REGIONAL REPORTS...ALBERTA

CITY           SKY/WX    TMP DP  RH WIND       PRES   REMARKS
EDMONTON       CLOUDY    46  39  76 N2        30.18S
CALGARY        CLOUDY    43  39  87 N18       30.12S
LETHBRIDGE     DRIZZLE   46  45  93 NW13      30.06S FOG
MEDICINE HAT   LGT RAIN  52  48  87 NE9       30.05R FOG
WATERTON GATE    N/A     43  39  87 E2          N/A
CARDSTON         N/A     41  41 100 NW8         N/A
MILK RIVER       N/A     46  46 100 NW8         N/A
ONEFOUR          N/A     50  46  87 SE7         N/A
$$

REGIONAL REPORTS...SASKATCHEWAN

CITY           SKY/WX    TMP DP  RH WIND       PRES   REMARKS
SWIFT CURRENT  CLOUDY    54  48  82 E14       30.04F
REGINA         PTSUNNY   61  46  59 N21G30    29.97F
SASKATOON      CLOUDY    55  41  58 NE13      30.11S
CYPRESS HILLS    N/A     48  45  87 E5          N/A
VAL MARIE        N/A     57  46  67 NE16        N/A
ROCKGLEN         N/A     61  41  48 N14G23      N/A
ASSINIBOIA       N/A     52  41  66 NE7         N/A
$$


USA.gov is the U.S. government's official web portal to all federal, state and local government web resources and services.